Regional Weather Roundup
Issued by NWS

Home | Current Version | Previous Version | Graphics & Text | Print | Product List | Glossary On
Versions: 1 2 3 4 5 6 7 8 9 10 11 12 13 14 15 16 17 18 19 20 21 22 23 24 25 26 27 28 29 30 31 32 33 34 35 36 37 38 39 40 41 42 43 44 45 46 47 48 49 50
703
ASUS44 KLIX 251405
RWRLA
LOUISIANA WEATHER ROUNDUP
NATIONAL WEATHER SERVICE NEW ORLEANS LA
800 AM CST SUN JAN 25 2015

NOTE: "FAIR" INDICATES FEW OR NO CLOUDS BELOW 12,000 FEET WITH NO
      SIGNIFICANT WEATHER AND/OR OBSTRUCTIONS TO VISIBILITY.
      SKY/WX - SKY CONDITION AND SIGNIFICANT WEATHER.
      TMP - AIR TEMPERATURE.    DP   - DEWPOINT TEMPERATURE.
      RH  - RELATIVE HUMIDITY.  PRES - PRESSURE.
      HX  - HEAT INDEX.         WCI  - WIND CHILL INDEX.

*  THESE STATIONS ARE NOT NWS OR FAA STATIONS AND ARE NOT UNDER
   NWS QUALITY CONTROL.

LAZ040-048-061>063-065-066-069-251500-
SOUTHEAST LOUISIANA

CITY           SKY/WX    TMP DP  RH WIND       PRES   REMARKS
N.O. AUDUBON     N/A     48  47  96 MISG        N/A
N.O. INTL ARPT MOSUNNY   47  43  86 S9        30.04F
N.O. LAKEFRONT SUNNY     49  44  83 SW12      30.05F
N.O. DOWNTOWN* FAIR      46  41  81 S6        30.05S
SLIDELL        SUNNY     44  42  93 CALM      30.03F FOG
BATON ROUGE    SUNNY     46  43  89 SW8       30.03R
BOOTHVILLE     SUNNY     52  49  89 W5        30.08S
BELLE CHASSE   SUNNY     43  39  87 SW5       30.05S FOG
BOGALUSA*        N/A     34  32  92 CALM      30.03F
GALLIANO*      SUNNY     43  43 100 MISG      30.06F FOG
NEW ROADS*     FAIR      42  41  98 S3        30.02S FOG
GONZALES*      FAIR      44  44 100 S5        30.04R
HAMMOND*       SUNNY     41  39  93 CALM      30.04S FOG
HOUMA*         NOT AVBL
PORT FOURCHON* SUNNY     54  48  82 SW3       30.11S

$$

LAZ041-044-053-054-251500-
SOUTHWEST LOUISIANA

CITY           SKY/WX    TMP DP  RH WIND       PRES   REMARKS
LAKE CHARLES   CLEAR     46  44  93 SW5       30.03S
LAFAYETTE      MOSUNNY   44  44 100 CALM      30.04S
PATTERSON      SUNNY     43  41  93 SW5       30.05S
SALT POINT       N/A     50  49  96 SW5       30.04F
NEW IBERIA     SUNNY     46  45  96 SW8       30.03F
CHENAULT AIRPK CLEAR     45  43  93 SW5       30.03F

$$

LAZ027-028-251500-
CENTRAL LOUISIANA

CITY           SKY/WX    TMP DP  RH WIND       PRES   REMARKS
FORT POLK      CLEAR     42  38  85 SW6       29.97S
ALEXANDRIA INT CLEAR     43  37  79 SW8       29.95F
ALEXANDRIA     CLEAR     35  33  92 CALM      29.96F

$$

LAZ001-002-251500-
NORTHWEST LOUISIANA

CITY           SKY/WX    TMP DP  RH WIND       PRES   REMARKS
SHREVEPORT     PTCLDY    42  35  76 SW12      29.90F
BARKSDALE AFB  CLEAR     37  33  86 SW5       29.91S WCI  34
DTN SHREVEPORT CLEAR     42  34  73 SW8       29.91S

$$

LAZ014-016-251500-
NORTHEAST LOUISIANA

CITY           SKY/WX    TMP DP  RH WIND       PRES   REMARKS
MONROE         CLEAR     39  36  89 SW6       29.92F WCI  35
TALLULAH       SUNNY     42  37  82 S5        29.94F

$$




USA.gov is the U.S. government's official web portal to all federal, state and local government web resources and services.